Temp
6 9 9 8 6 8 8 6 6 6 7 6 2 3 8 11 12 10 10 10 9 9 8 8 2 3 3 7 7 7 8 7 7 8 8 8 9 9 9 8 8 8 5 10
7 9 8 7 6 9 8 4 4 6 6 3 3 7 9 10 11 11 11 9 11 11 9 7 7 6 7 7 7 7 8 6 4 6 8 9 9 10 10 8 6 9 6 10
10 9 8 7 7 9 10 4 3 4 6 4 6 7 8 8 9 11 11 10 11 10 9 9 7 8 7 7 7 9 8 6 7 5 8 9 10 11 11 9 6 9 9 10
9 8 7 6 9 9 10 4 3 4 5 5 5 7 8 8 8 9 11 10 10 10 9 9 8 8 6 7 6 6 6 6 7 8 8 9 10 11 11 7 9 7 9 9
8 7 7 7 7 8 8 5 4 3 4 5 6 8 7 7 8 8 9 10 10 11 8 9 8 8 8 7 7 1 3 5 6 8 9 10 10 10 9 9 9 9 10 10
8 7 6 8 7 8 6 5 5 5 5 4 5 5 6 7 7 7 8 8 8 10 8 8 8 8 8 7 7 5 4 4 7 7 9 10 9 9 10 9 9 10 9 10
7 6 6 7 8 9 8 6 5 5 6 5 6 5 7 6 7 7 7 7 8 7 7 7 7 8 8 7 5 6 7 8 8 8 8 8 10 9 10 9 9 9 10 10
7 6 6 6 7 8 8 7 6 4 4 4 5 5 5 4 5 6 7 7 6 6 7 8 8 9 8 8 8 7 7 8 8 7 5 9 10 9 9 9 10 10 10 10
6 6 6 6 6 7 7 7 7 3 4 5 5 4 4 3 3 5 7 7 6 7 7 9 9 6 8 8 8 8 7 7 7 7 9 9 10 11 10 10 10 10 10 10
6 6 5 5 6 6 6 7 7 5 2 2 4 3 4 2 3 3 5 6 6 6 6 7 8 7 9 8 8 9 9 9 9 8 8 9 10 9 10 10 9 9 9 8
6 6 5 6 6 6 7 6 6 5 1 2 3 3 3 2 2 4 4 5 5 5 6 7 7 7 7 7 8 8 7 6 6 7 9 9 8 9 10 9 9 9 8 8
7 6 6 5 6 7 7 6 5 6 1 1 3 3 3 4 4 2 2 4 3 4 5 5 6 7 5 5 6 7 8 7 8 7 7 8 8 9 9 8 9 9 8 8
6 6 5 6 7 7 7 6 6 6 1 1 2 2 4 4 4 4 3 2 3 3 2 3 4 7 4 6 6 7 7 6 7 8 8 8 8 9 8 8 8 8 8 9
6 6 5 5 6 7 8 6 6 6 2 3 2 3 3 4 4 4 4 3 3 2 2 4 4 6 5 5 6 5 6 7 7 7 8 8 8 8 8 8 8 8 8 8
6 6 5 5 6 7 7 7 6 6 6 3 2 2 3 3 4 4 5 4 1 1 3 4 5 5 5 5 5 5 5 6 6 7 6 6 6 6 7 8 8 8 8 8
5 6 5 6 6 7 8 5 6 6 6 1 2 1 2 3 4 4 3 2 -0 -0 1 2 2 4 6 5 5 6 5 5 5 6 5 5 5 5 6 7 7 7 7 7
5 5 5 5 6 7 6 5 5 6 6 1 1 1 3 4 5 4 2 2 0 1 1 2 2 3 5 5 4 6 5 5 5 3 4 6 7 6 5 6 6 6 6 6
4 4 4 5 6 6 5 5 5 6 5 1 -2 1 2 4 3 4 3 2 1 2 2 1 2 3 4 4 4 4 4 4 4 3 3 3 3 4 6 6 6 6 5 5
4 4 4 5 6 4 5 5 6 6 5 1 -1 -0 -0 2 4 3 4 2 1 2 3 3 3 4 3 5 4 3 3 4 3 2 2 3 4 4 4 4 4 4 5 5
3 3 3 2 2 4 5 5 2 1 1 1 1 -0 1 2 1 3 2 2 1 1 3 3 3 4 4 3 2 2 1 2 3 3 3 3 2 2 2 3 3 3 3 3
2 1 2 1 2 3 3 2 2 1 2 1 -0 -1 1 0 0 0 2 -0 -1 -0 2 2 3 3 2 1 1 0 1 2 2 3 3 3 2 2 2 2 1 1 2 2
3 2 2 2 2 2 3 1 1 1 3 -0 -0 -0 0 -0 0 -0 -1 -0 -1 0 3 3 1 2 1 -0 1 0 -0 1 1 2 1 1 2 2 2 2 2 2 2 1
3 2 2 3 2 2 1 1 -1 -1 0 -1 -1 -0 0 0 1 -1 -2 -3 -1 2 5 5 2 1 0 -0 0 0 0 1 1 0 0 0 0 1 0 1 1 1 0 -0
3 2 2 3 2 1 0 1 3 2 -0 0 -1 -1 0 1 -1 -0 -1 1 1 5 2 1 -1 0 0 -1 -1 -0 1 0 -1 -2 -2 -2 -2 -2 -1 -0 0 -0 -1 -1
2 3 5 1 1 -0 1 0 2 1 2 0 -1 -2 -1 -5 -0 -1 2 3 -1 1 1 -0 -3 -0 -1 -2 -1 -3 -4 -6 -9 -4 -4 -4 -3 -3 -2 -0 -0 -1 -2 -2
0 -1 -0 1 1 1 1 1 1 1 2 -1 -2 -4 -3 -2 -2 -3 -2 -1 -1 0 -2 -4 -5 -4 -5 -5 -3 -2 -2 -3 -4 -4 -4 -4 -3 -3 -2 -1 -1 -2 -3 -3
-0 -1 -1 -2 -1 1 1 2 1 2 3 1 -2 -0 0 -3 -4 -3 -5 -2 -1 -3 -2 -5 -5 -4 -5 -8 -6 -4 -3 -3 -4 -4 -3 -3 -2 -2 -2 -3 -2 -3 -3 -4
Height
703 700 701 712 730 731 740 748 762 767 769 775 785 785 764 759 758 762 763 767 769 769 776 778 806 806 798 785 783 783 776 781 783 776 768 765 763 761 763 773 774 776 798 769
692 699 705 716 728 726 735 752 766 768 768 786 784 767 762 762 759 759 761 767 763 764 771 784 783 787 785 784 781 783 779 786 809 790 777 764 767 761 758 766 785 770 804 772
680 694 704 719 725 728 733 748 770 771 768 771 767 765 766 768 766 761 761 765 763 770 772 774 783 783 783 784 784 776 779 788 786 805 782 772 768 761 758 769 791 778 781 770
690 698 708 722 724 729 733 744 759 757 765 769 767 764 768 771 770 767 763 765 766 768 775 772 778 778 789 785 785 786 788 791 784 777 777 769 763 760 758 779 772 790 776 774
701 706 714 725 729 731 736 744 752 758 763 763 764 762 769 770 771 770 768 767 771 766 777 778 780 783 784 785 784 803 796 794 787 776 770 767 765 766 767 772 770 772 772 773
709 714 723 728 731 736 740 742 743 747 763 767 766 772 772 769 771 774 769 774 776 771 781 782 783 782 783 784 787 796 798 798 786 792 774 770 779 775 771 773 775 772 778 774
715 721 725 732 735 739 741 741 742 750 763 764 764 768 767 772 772 775 775 775 776 783 783 783 784 783 784 785 792 791 788 780 781 783 780 787 773 773 770 776 777 775 773 771
717 722 728 735 738 741 742 742 742 750 768 767 767 769 773 777 778 778 777 776 778 780 782 781 784 781 784 784 785 788 789 785 783 793 806 777 772 776 774 773 771 772 770 767
721 726 730 736 739 743 744 743 743 746 759 767 766 773 775 784 786 784 779 779 779 780 782 779 777 794 781 785 784 786 786 787 787 789 781 784 776 771 772 772 772 770 771 768
726 730 734 737 741 744 747 745 745 746 763 770 769 775 778 780 783 787 782 780 780 781 787 787 783 786 779 784 782 779 778 781 780 786 786 784 776 775 770 777 787 776 774 773
729 733 737 740 743 745 747 747 747 748 764 772 770 773 776 779 781 783 783 784 784 787 785 786 786 786 788 786 781 782 787 795 796 791 781 785 778 775 774 781 777 774 775 773
728 733 739 741 743 745 747 749 749 749 757 773 774 776 776 776 776 781 783 782 784 784 784 788 786 783 793 795 797 785 786 789 784 791 791 782 779 776 778 777 774 773 774 772
727 733 739 742 743 746 747 748 749 751 766 776 777 780 779 778 776 776 781 784 780 782 784 788 790 782 794 793 792 786 784 785 787 784 783 782 781 779 778 777 777 776 775 771
725 731 738 743 745 746 747 749 749 752 761 773 784 781 781 780 778 776 776 776 779 781 784 786 789 786 788 792 788 792 789 784 784 786 782 781 781 781 782 780 779 780 779 777
725 729 736 742 744 746 748 750 751 752 757 773 785 784 784 783 781 779 778 779 782 787 789 789 789 787 787 787 790 790 784 784 788 784 786 785 784 783 783 782 782 781 779 777
725 728 735 740 744 748 750 751 752 752 754 766 784 788 786 785 784 783 783 784 787 791 792 794 793 787 786 793 794 780 782 784 784 785 785 785 784 783 784 782 781 780 779 778
725 730 736 742 745 747 749 751 751 752 754 763 786 790 788 786 785 786 787 787 790 791 795 794 795 792 786 790 793 776 780 783 785 786 784 783 782 782 783 782 781 781 781 781
724 731 737 742 746 749 750 750 752 753 753 759 788 791 789 788 788 788 787 791 791 792 794 796 794 792 790 792 780 779 780 782 786 787 787 787 785 783 781 782 781 780 781 780
725 732 740 745 747 749 750 752 753 752 755 767 779 788 795 787 786 787 787 789 797 793 793 793 792 791 792 777 778 780 780 782 784 786 786 785 784 783 782 783 783 783 782 780
726 737 740 747 746 747 751 755 754 754 755 759 772 777 783 785 789 788 792 790 795 802 792 790 791 783 773 774 774 776 779 781 783 784 784 784 786 786 785 784 784 784 782 780
722 732 740 746 746 750 754 756 760 761 762 760 769 774 778 783 790 792 788 798 799 808 793 796 791 782 774 773 775 777 779 780 781 782 783 784 784 784 783 782 782 781 778 777
712 722 737 743 748 755 755 761 760 759 750 761 765 770 772 779 779 789 793 797 800 805 787 791 794 773 770 774 775 778 779 780 780 781 782 782 782 782 781 779 777 777 777 776
713 723 732 736 748 752 751 751 760 760 748 754 759 767 769 776 777 787 795 809 805 785 780 775 773 769 771 773 775 777 779 780 780 780 781 781 781 780 779 777 776 775 774 774
710 717 730 725 732 730 726 723 719 724 733 742 752 764 767 772 782 784 799 791 790 778 791 781 773 766 768 772 774 776 777 779 780 780 780 779 778 776 776 775 774 772 770 770
701 703 695 714 709 713 712 714 717 722 726 733 752 764 768 786 782 785 781 782 802 784 779 771 769 764 768 772 774 776 777 778 778 778 777 776 775 774 773 771 770 768 766 764
700 704 705 704 706 711 713 714 719 719 724 732 746 769 779 779 781 791 790 791 788 771 770 767 768 769 771 772 772 773 774 776 777 776 775 774 773 772 770 767 765 763 763 762
697 699 698 701 701 701 705 708 713 716 715 733 748 757 763 778 789 787 789 778 765 762 760 764 766 767 770 770 771 773 774 775 775 774 773 771 770 767 766 764 763 763 761 760
Wind_Speed
45 8 42 38 34 34 27 7 3 8 14 2 0 3 3 3 7 2 2 3 0 2 2 5 2 2 4 1 3 3 3 1 2 2 6 2 0 2 1 3 4 4 3 3
34 28 39 36 35 40 16 3 3 3 1 3 1 2 3 2 6 4 3 2 2 4 1 2 3 3 3 4 3 4 5 3 3 6 4 4 5 3 2 4 3 3 3 4
18 37 43 36 37 34 10 4 3 1 1 1 3 5 3 3 3 4 3 2 2 3 3 5 3 2 2 3 4 8 2 1 2 4 4 3 3 4 3 3 3 2 2 4
33 44 38 37 33 26 6 2 2 4 5 4 3 4 5 4 3 1 2 2 1 2 2 1 3 2 4 3 7 4 3 1 2 3 5 3 3 3 3 4 4 4 1 2
31 33 31 29 31 23 5 3 4 2 2 4 6 3 5 6 3 3 3 3 3 2 3 2 2 2 3 2 4 4 4 2 4 5 4 1 3 6 5 5 3 5 6 3
29 31 26 24 27 16 2 1 2 4 3 2 5 4 5 6 7 3 1 7 4 3 3 3 2 2 1 1 2 2 3 2 4 2 2 3 4 6 2 3 3 3 4 3
26 26 25 20 21 17 2 2 3 3 1 2 3 6 2 6 3 5 1 4 4 3 1 2 3 3 3 2 5 2 2 3 1 1 2 3 0 6 4 6 2 2 4 5
29 28 21 16 17 17 4 1 2 3 3 2 4 6 5 5 4 3 3 1 3 4 4 3 2 1 2 1 3 3 2 2 1 2 2 1 3 5 3 3 3 2 4 6
28 25 22 15 14 22 6 3 5 4 6 2 3 4 3 4 3 2 1 2 1 3 2 2 2 2 2 2 2 1 2 2 0 1 3 2 1 3 3 2 1 1 4 6
23 23 20 16 13 16 6 3 3 5 4 2 2 3 5 4 3 3 1 1 2 2 2 1 2 2 2 2 3 2 1 1 2 1 2 1 3 6 3 3 3 4 2 5
21 18 16 13 12 16 7 2 2 3 3 2 3 3 3 2 2 4 3 3 2 2 2 2 2 2 2 2 1 2 3 3 2 2 2 1 4 2 1 2 4 3 4 4
24 18 12 15 13 8 6 4 15 15 4 3 8 12 9 3 2 4 1 2 2 3 3 0 2 1 2 2 1 2 0 3 2 4 3 2 2 2 2 2 1 3 3 3
26 25 14 15 12 9 4 12 16 11 3 4 5 3 8 7 6 1 3 2 3 2 2 3 2 2 3 3 2 0 2 1 2 2 2 1 2 2 3 3 3 5 4 2
32 29 21 18 13 9 6 12 7 7 4 3 1 4 4 7 5 4 2 6 4 5 2 2 2 2 1 2 2 2 4 1 1 1 1 1 2 2 3 3 4 5 4 4
33 30 23 17 11 7 9 8 4 3 3 3 2 1 5 6 6 10 10 11 4 3 3 2 1 1 2 1 2 2 2 4 3 2 2 1 3 3 3 3 3 4 4 3
32 31 25 18 14 11 14 1 3 6 8 4 3 1 3 5 11 13 10 6 3 2 2 1 2 3 1 2 2 2 1 1 3 2 1 3 6 4 3 3 2 3 4 3
33 29 25 18 21 20 2 3 4 8 5 3 3 2 0 2 2 2 2 4 2 2 1 1 1 2 3 0 3 4 6 4 2 3 3 0 3 2 5 3 3 3 3 3
36 30 25 20 14 9 1 4 6 4 7 4 4 2 2 4 2 2 1 1 2 2 2 1 1 1 1 3 4 4 4 3 4 2 3 3 6 7 3 4 4 4 4 3
36 31 24 14 3 3 2 8 5 4 1 4 3 5 4 3 2 3 0 2 2 1 0 1 3 2 4 5 6 6 5 4 3 3 3 3 2 3 4 5 6 5 5 4
40 26 4 2 3 11 10 2 2 4 3 3 3 3 3 3 2 2 3 2 2 1 3 1 2 3 3 3 3 6 6 6 4 1 2 2 3 4 5 4 4 5 5 8
10 4 2 9 15 4 2 1 2 1 1 2 3 3 5 2 3 2 2 3 1 2 3 3 2 3 4 6 6 5 5 5 4 3 1 2 4 5 6 6 7 9 10 9
16 16 13 7 3 2 2 3 1 2 6 2 5 4 3 2 2 3 2 3 2 3 3 2 3 3 3 6 6 5 5 5 3 2 3 5 6 8 9 9 10 10 10 10
19 4 4 4 2 3 8 8 4 2 5 5 4 3 3 2 2 2 3 4 4 1 2 3 4 2 4 5 5 4 4 3 2 4 5 7 9 11 10 12 15 11 11 12
3 6 7 7 6 6 5 5 5 3 6 10 5 3 3 2 3 3 4 3 1 3 4 5 3 6 6 5 3 4 2 1 3 5 7 9 11 12 15 16 16 11 12 14
4 4 7 7 3 2 2 3 4 2 10 8 4 3 3 2 4 1 3 4 3 5 5 3 3 5 6 5 3 3 1 2 3 5 7 13 14 14 16 17 13 12 15 15
2 1 3 3 4 2 2 3 5 4 7 4 4 4 4 2 4 3 6 8 6 4 3 2 3 4 4 3 3 2 1 3 5 8 9 11 12 13 15 16 16 15 13 13
3 1 0 2 2 4 3 5 3 7 4 3 3 5 5 3 3 2 4 5 3 3 2 2 3 6 4 4 3 3 3 4 7 8 10 12 13 15 15 10 13 15 14 14
Wind_Direction
320 317 170 160 171 152 150 120 100 163 163 118 238 147 184 81 165 130 110 66 140 92 73 22 86 118 205 242 291 0 316 8 24 286 291 301 42 40 24 106 322 40 102 297
316 169 163 164 167 156 137 96 106 180 223 140 261 246 93 77 161 166 143 138 340 53 108 84 80 71 231 332 35 359 327 8 11 343 348 356 33 336 48 63 51 26 91 287
174 175 164 168 166 157 133 113 110 355 282 145 169 131 148 123 15 139 58 113 90 53 35 38 51 58 33 344 353 347 13 42 124 162 208 272 356 342 28 95 84 132 109 315
157 161 158 170 166 168 117 56 180 174 176 232 182 110 143 137 137 6 195 96 48 147 112 56 74 9 1 16 1 18 62 76 318 263 248 280 352 359 32 88 101 98 344 18
155 152 155 169 168 176 76 130 132 40 111 103 108 90 184 157 136 138 211 152 121 121 86 44 101 326 48 339 12 32 6 0 348 11 78 135 45 24 73 64 59 68 61 54
160 151 166 163 175 172 112 137 80 99 350 91 102 191 179 177 136 15 114 131 118 113 84 64 73 64 123 62 37 31 40 34 23 351 347 77 40 345 353 72 65 84 61 278
158 156 160 169 185 182 59 188 118 91 140 112 153 150 131 141 138 137 113 100 110 138 113 110 104 110 101 89 71 92 1 349 82 322 26 57 189 353 132 123 71 346 300 296
160 158 156 176 187 189 9 140 90 117 109 120 81 116 107 86 50 72 118 12 118 142 100 132 133 138 172 93 127 164 223 292 56 114 75 321 19 358 358 32 26 268 301 309
155 156 158 186 202 205 1 51 57 97 121 225 108 115 142 132 116 33 63 40 124 97 118 169 196 192 114 183 204 181 212 262 99 5 81 94 353 307 305 286 314 218 301 303
155 161 169 190 198 202 241 43 63 84 103 354 81 135 174 132 110 123 131 200 99 31 108 121 175 230 178 164 173 162 128 120 68 359 109 272 289 308 287 134 245 315 296 294
168 173 181 191 188 197 211 67 73 90 96 26 30 36 131 94 117 149 189 92 328 78 111 136 202 143 230 118 183 184 173 142 177 184 114 181 17 13 89 312 318 339 339 313
172 175 176 185 174 174 177 92 100 92 78 122 90 72 51 34 144 130 56 157 142 176 105 206 114 126 80 164 204 2 6 182 164 150 211 296 345 111 123 220 287 350 325 330
173 167 172 178 163 174 180 135 120 85 94 40 47 4 22 42 32 354 125 294 169 115 168 154 138 135 125 161 237 160 319 150 116 83 48 105 340 27 14 22 34 345 327 26
169 167 176 188 177 186 173 156 145 101 112 106 299 1 26 3 25 55 100 128 87 99 85 77 124 130 124 195 187 162 206 72 128 51 88 162 92 26 336 318 327 335 4 2
172 172 179 183 179 188 188 161 165 166 115 123 128 56 28 29 66 74 90 89 75 47 55 58 208 144 98 225 62 256 178 175 155 223 182 135 251 319 337 317 326 331 310 318
178 177 171 182 184 181 158 72 178 140 135 104 111 312 13 67 82 73 62 62 72 76 109 196 291 261 99 116 228 200 159 134 166 162 240 226 269 270 36 331 319 291 301 335
168 165 160 172 172 177 100 168 135 149 143 95 101 89 283 149 68 47 42 46 92 104 122 113 183 316 23 159 220 190 156 133 129 40 347 240 41 342 327 317 326 333 342 348
161 157 159 163 165 146 57 86 139 137 103 77 106 97 158 180 151 150 111 80 37 6 141 82 176 347 25 256 230 154 139 116 179 21 19 267 284 294 326 346 337 325 304 293
153 149 146 127 145 127 154 135 111 92 117 124 104 142 183 160 160 164 134 119 74 287 88 244 126 196 224 227 194 184 178 169 163 340 346 19 16 13 28 6 6 345 327 331
141 135 124 154 182 137 134 205 27 14 346 58 100 122 132 141 155 170 139 92 157 190 241 123 209 254 242 211 201 155 156 161 170 289 305 340 332 337 328 335 317 311 309 303
146 137 113 122 131 111 15 128 131 240 13 128 137 140 137 220 123 162 178 192 160 96 247 138 247 261 233 163 153 156 154 170 189 214 243 275 280 289 293 292 286 279 281 283
151 128 123 111 80 77 145 209 310 184 200 146 131 162 142 159 134 101 285 140 48 215 166 157 261 247 175 159 168 173 173 180 196 227 265 287 291 294 291 283 277 278 280 289
121 88 91 130 160 207 183 188 251 194 170 168 157 123 126 108 74 77 91 84 212 216 199 238 224 199 161 167 150 148 175 204 253 295 294 292 286 286 286 288 290 287 281 288
141 160 145 191 188 228 188 181 171 159 131 134 117 103 118 126 78 131 108 226 94 197 232 236 241 194 168 166 149 131 161 252 294 293 301 299 297 290 295 297 294 293 277 283
171 165 194 193 165 129 137 122 108 102 142 122 102 69 90 53 118 179 123 155 225 208 228 232 222 150 146 157 158 176 220 280 300 318 311 307 307 301 297 300 293 294 285 273
131 112 108 112 108 134 122 106 122 159 143 97 71 111 82 142 143 110 204 145 216 236 216 221 130 131 147 155 157 149 235 290 306 312 307 307 306 304 300 304 298 295 290 279
143 212 240 146 99 138 130 143 151 157 137 124 124 109 177 99 69 220 197 200 213 205 190 148 146 156 182 178 164 222 260 298 316 314 318 312 315 311 306 296 308 319 304 285